Retour au catalogue

COSMOS 2242

ActifMilitairePO
NORAD 22626·PAYLOAD·🇷🇺 Russia

Lancé Apr 16, 1993 depuis Plesetsk Cosmodrome

Loading…

Prochains Passages (prochaines 24 heures)

TLE

FraisSource: Space-Track

Époque: Sep 14, 2026, 00:18 UTC

1 22626U 93024A   26257.01251853  .00001231  00000-0  10411-3 0  9990
2 22626  82.5151  86.5399 0016997  35.8274 324.4085 14.97125844808561

Suivez COSMOS 2242 en temps réel avec AllMySat

Download on the App Store